C719 Diversion




Date Battery Voltage (V) Gauge Height (ft) Canal Flow (cfs) Gate 1 Height (ft) Gate 2 Height (ft) Pond (ft) Pond Height (ft) Pond Battery Voltage (V) Pond RF Signal (db) Call Fails Total Fails Tries Auto Pond Pond Set (ft) Gate 1 Warning Gate 2 Warning Gate 1 Up Total Gate 1 Down Total Gate 2 Up Total Gate 2 Down Total Settle Count Auto CFS CFS Set (cfs)
11/01/2018 13.0 -2.53 0.00 -0.10 -0.01
11/02/2018 13.1 -2.53 0.00 -0.10 -0.01
11/03/2018 13.0 -2.53 0.00 -0.10 -0.01
11/04/2018 13.0 -2.52 0.00 -0.10 -0.01
11/05/2018 12.9 -2.52 0.00 -0.10 -0.01
11/06/2018 13.0 -2.52 0.00 -0.10 -0.01
11/07/2018 13.1 -2.50 0.00 -0.10 -0.01
11/08/2018 13.1 -2.48 0.00 -0.10 -0.01
11/09/2018 13.1 -2.46 0.00 -0.10 -0.01
11/10/2018 13.1 -2.46 0.00 -0.10 -0.01
11/11/2018 13.1 -2.45 0.00 -0.10 -0.01
11/12/2018 13.1 -2.45 0.00 -0.10 -0.01
11/13/2018 13.1 -2.45 0.00 -0.10 -0.01
11/14/2018 13.1 -2.46 0.00 -0.10 -0.01
11/15/2018 13.0 -2.46 0.00 -0.10 -0.01
11/16/2018 13.0 -2.46 0.00 -0.10 -0.01
11/17/2018 13.0 -2.46 0.00 -0.10 -0.01
11/18/2018 13.0 -2.46 0.00 -0.10 -0.01
11/19/2018 13.1 -2.46 0.00 -0.10 -0.01
11/20/2018 13.1 -2.47 0.00 -0.10 -0.01
11/21/2018 13.1 -2.47 0.00 -0.10 -0.01
11/22/2018 13.1 -2.47 0.00 -0.10 -0.01
11/23/2018 12.7 -2.46 0.00 -0.10 -0.01
11/24/2018 12.9 -2.44 0.00 -0.10 -0.01
11/25/2018 13.1 -2.46 0.00 -0.10 -0.01
11/26/2018 13.1 -2.47 0.00 -0.10 -0.01
11/27/2018 13.1 -2.47 0.00 -0.10 -0.01
11/28/2018 13.0 -2.47 0.00 -0.10 -0.01
11/29/2018 12.7 -2.48 0.00 -0.10 -0.01
11/30/2018 12.5 -2.48 0.00 -0.10 -0.01
Average 0.00 0.00
Maximum 0.00
Minimum 0.00
Total Volume (AF) 0.00 0.00